Other Surface Observations
Issued by NWS Tucson, AZ

Home | Current Version | Previous Version | Text Only | Print | Product List | Glossary On
Versions: 1 2 3 4 5 6 7 8 9 10 11 12 13 14 15 16 17 18 19 20 21 22 23 24 25 26 27 28 29 30 31 32 33 34 35 36 37 38 39 40 41 42 43 44 45 46 47 48 49 50
337
SXUS55 KTWC 260315
OSOTWC

WEATHER ROUNDUP FOR SOUTHEAST ARIZONA
NATIONAL WEATHER SERVICE TUCSON AZ
815 PM MST TUE APR 25 2017

AZZ504>506-514-260415-
LOCATION       SKY/WX    TMP DP  RH WIND       PRES   REMARKS
TUCSON         MOCLDY    74  35  24 NW10G18   29.79R
DAVIS-MONTHAN  MOCLDY    73  35  25 NW9       29.78R
CHILDRENS PARK N/A      N/A N/A  23 W8                PIMA CO DEQ
ALVERNON/22ND  N/A       76 N/A N/A NW11              PIMA CO DEQ
CHERRY/GLENN   N/A      N/A N/A N/A N/A               PIMA CO DEQ
TANGERINE      N/A       75 N/A N/A W9                PIMA CO DEQ
CONTL RANCH    N/A       77  35  22 W10               PIMA CO DEQ
GRANT/1ST      N/A       77  35  22 W10               PIMA CO DEQ
CRAYCROFT/22ND N/A       76  36  23 NW14              PIMA CO DEQ
GOLFLINKS/KOLB N/A      N/A N/A N/A N/A               PIMA CO DEQ
AJO/12TH       N/A       77  37  24 W13               PIMA CO DEQ
FAIRGROUNDS    N/A       74 N/A N/A W15               PIMA CO DEQ
SAGUARO        N/A       73  35  25 W9G19             *SABINO CYN
SAN CARLOS     N/A       72  31  22 SW8G18            *SAN CARLOS
GREEN VALLEY   N/A       75  36  24 SW9               PIMA CO DEQ
HORSE CAMP CYN N/A       66  32  28 W16G33            *ARAVAIPA CYN
RINCON MTNS    NOT AVBL
$$

AZZ509>511-260415-
LOCATION       SKY/WX    TMP DP  RH WIND       PRES   REMARKS
SAFFORD        CLEAR     70  32  24 NW26G36   29.70R
STRAY HORSE    N/A       47  28  47 N/A               *
TRAIL CABIN    N/A       54  31  42 W10G21            *N OF GRANVILLE
BLACK HILLS    NOT AVBL
DRY LAKE       N/A       47  27  46 W6G17             *NATANES MTNS
NOON CREEK     N/A       62  32  32 SW13G30           *PINALENO MTNS
COLUMBINE      N/A       39  30  69 SW11G23           *PINALENO MTNS
GUTHRIE        N/A       55  31  39 W29G47            *SW OF GUTHRIE
$$

AZZ502-503-513-260415-
LOCATION       SKY/WX    TMP DP  RH WIND       PRES   REMARKS
NOGALES        PTCLDY    66  41  40 SW9       29.85R
SELLS          N/A       74  35  24 NE9G16            *
SASABE         N/A       69  35  28 W9G13             *ALTAR VLY
HOPKINS        N/A       50  33  51 W11G20            *SANTA RITA MTNS
CARR CYN       N/A       60  38  44 NE3G11            *W OF HEREFORD
$$

AZZ507-508-512-260415-
LOCATION       SKY/WX    TMP DP  RH WIND       PRES   REMARKS
SIERRA VISTA   PTCLDY    64  41  42 W18       29.86R
DOUGLAS        MOCLDY    68  38  33 SW22      29.81R
EMPIRE MTNS    NOT AVBL
MULESHOE RANCH N/A       65  34  32 NW13G26           *PRESERVE
HEADQUARTERS   NOT AVBL
$$

.............................NOTES.............................
THIS IS AN AUTOMATED COLLECTIVE WITH MINIMAL QUALITY CONTROL.
PIMA CO DEQ SITES HAVE NONSTANDARD WIND SENSOR HEIGHTS.
PIMA CO DEQ SITES DO NOT REPORT WIND GUSTS.
* INDICATES WIND SENSORS LOCATED AT 20 FEET INSTEAD OF 33 FEET.
..............................KEY..............................
SKY/WX - SKY CONDITION/WEATHER
TMP    - TEMPERATURE IN FAHRENHEIT
DP     - DEWPOINT IN FAHRENHEIT
RH     - RELATIVE HUMIDITY IN PERCENT
WIND   - DIRECTION AND SPEED IN MILES PER HOUR (MPH)
VRB    - VARIABLE WIND DIRECTION
PRES   - MEAN SEA LEVEL PRESSURE IN INCHES OF MERCURY
         F - FALLING PRESSURE   R - RISING PRESSURE
         S - STEADY PRESSURE
VSB    - VISIBILITY IN MILES
HX     - HEAT INDEX IN FAHRENHEIT
WCI    - WIND CHILL INDEX IN FAHRENHEIT
N/A    - NOT AVAILABLE
AFB    - AIR FORCE BASE
         DAVIS-MONTHAN IS DAVIS-MONTHAN AIR FORCE BASE
CYN    - CANYON
MTNS   - MOUNTAINS
NCA    - NATIONAL CONSERVATION AREA
NR     - NEAR
VLY    - VALLEY
CONTL  - CONTINENTAL
PIMA CO DEQ - PIMA COUNTY DEPT OF ENVIRONMENTAL QUALITY



USA.gov is the U.S. government's official web portal to all federal, state and local government web resources and services.